QPF
0.00 0.00 0.00 0.00 0.00 0.00 0.00 0.00 0.00 0.00 0.00 0.00 0.00 0.00 0.00 0.00 0.00 0.00 0.00 0.00 0.00 0.00 0.00 0.00 0.00 0.00 0.00 0.00 0.00 0.00 0.00 0.00 0.00 0.00 0.00 0.00 0.00 0.00 0.00 0.00 0.00 0.00 0.00 0.00 0.00
0.00 0.00 0.00 0.00 0.00 0.00 0.01 0.01 0.00 0.00 0.00 0.00 0.00 0.00 0.00 0.00 0.00 0.00 0.00 0.00 0.00 0.00 0.00 0.00 0.00 0.00 0.00 0.00 0.00 0.00 0.00 0.00 0.00 0.00 0.00 0.00 0.00 0.00 0.00 0.00 0.00 0.00 0.00 0.00 0.00
0.00 0.00 0.00 0.00 0.00 0.00 0.00 0.00 0.01 0.00 0.01 0.01 0.00 0.00 0.00 0.00 0.00 0.00 0.00 0.00 0.00 0.00 0.00 0.00 0.00 0.00 0.00 0.00 0.00 0.00 0.00 0.00 0.00 0.00 0.00 0.00 0.00 0.00 0.00 0.00 0.00 0.00 0.00 0.00 0.00
0.00 0.00 0.00 0.00 0.00 0.00 0.01 0.01 0.00 0.00 0.01 0.01 0.01 0.00 0.00 0.00 0.00 0.00 0.00 0.00 0.00 0.00 0.00 0.00 0.00 0.00 0.00 0.00 0.00 0.00 0.00 0.00 0.00 0.00 0.00 0.00 0.00 0.00 0.00 0.00 0.00 0.00 0.00 0.00 0.00
0.00 0.00 0.00 0.00 0.00 0.00 0.00 0.00 0.00 0.00 0.00 0.00 0.01 0.01 0.00 0.00 0.00 0.00 0.00 0.00 0.00 0.00 0.00 0.00 0.00 0.00 0.00 0.00 0.00 0.00 0.00 0.00 0.00 0.00 0.00 0.00 0.00 0.00 0.00 0.00 0.00 0.00 0.00 0.00 0.00
0.00 0.00 0.00 0.00 0.00 0.00 0.00 0.00 0.00 0.00 0.00 0.01 0.00 0.01 0.00 0.00 0.00 0.00 0.00 0.00 0.00 0.00 0.00 0.00 0.00 0.00 0.00 0.00 0.00 0.00 0.00 0.00 0.00 0.00 0.00 0.00 0.00 0.00 0.00 0.00 0.00 0.00 0.00 0.00 0.00
0.00 0.00 0.00 0.00 0.00 0.00 0.00 0.00 0.00 0.00 0.00 0.01 0.00 0.00 0.00 0.00 0.00 0.00 0.00 0.00 0.00 0.00 0.00 0.00 0.00 0.00 0.00 0.00 0.00 0.00 0.00 0.00 0.00 0.00 0.00 0.00 0.00 0.00 0.00 0.00 0.00 0.00 0.00 0.00 0.00
0.00 0.00 0.00 0.00 0.00 0.00 0.00 0.00 0.00 0.00 0.00 0.00 0.00 0.00 0.00 0.00 0.00 0.00 0.00 0.00 0.00 0.00 0.00 0.00 0.00 0.00 0.00 0.00 0.00 0.00 0.00 0.00 0.00 0.00 0.00 0.00 0.00 0.00 0.00 0.00 0.00 0.00 0.00 0.00 0.00
0.00 0.00 0.00 0.00 0.00 0.00 0.00 0.00 0.00 0.00 0.00 0.00 0.00 0.00 0.00 0.00 0.00 0.00 0.00 0.00 0.00 0.00 0.00 0.00 0.00 0.00 0.00 0.00 0.00 0.00 0.00 0.00 0.00 0.00 0.00 0.00 0.00 0.00 0.00 0.00 0.00 0.00 0.00 0.00 0.00
0.00 0.00 0.00 0.00 0.00 0.00 0.00 0.00 0.00 0.00 0.00 0.00 0.00 0.00 0.00 0.00 0.00 0.00 0.00 0.00 0.00 0.00 0.00 0.00 0.00 0.01 0.00 0.00 0.00 0.00 0.00 0.00 0.00 0.00 0.00 0.00 0.00 0.00 0.00 0.00 0.00 0.00 0.00 0.00 0.00
0.00 0.00 0.00 0.00 0.00 0.00 0.00 0.00 0.00 0.00 0.00 0.00 0.00 0.00 0.00 0.00 0.00 0.00 0.00 0.00 0.02 0.02 0.02 0.01 0.01 0.00 0.00 0.00 0.00 0.00 0.00 0.00 0.00 0.00 0.00 0.00 0.00 0.00 0.00 0.00 0.00 0.00 0.00 0.00 0.00
0.00 0.00 0.00 0.00 0.00 0.00 0.00 0.00 0.00 0.00 0.00 0.00 0.00 0.00 0.00 0.00 0.00 0.00 0.00 0.01 0.03 0.03 0.03 0.03 0.01 0.00 0.00 0.00 0.00 0.00 0.00 0.00 0.00 0.00 0.00 0.00 0.00 0.00 0.00 0.00 0.00 0.00 0.00 0.00 0.00
0.00 0.00 0.00 0.00 0.00 0.00 0.00 0.00 0.00 0.00 0.00 0.00 0.00 0.00 0.00 0.00 0.00 0.00 0.00 0.00 0.01 0.01 0.02 0.01 0.00 0.01 0.01 0.00 0.00 0.00 0.00 0.00 0.00 0.00 0.00 0.00 0.00 0.00 0.00 0.00 0.00 0.00 0.00 0.00 0.00
0.00 0.00 0.00 0.00 0.00 0.00 0.00 0.00 0.00 0.00 0.00 0.00 0.00 0.00 0.00 0.00 0.00 0.00 0.00 0.02 0.01 0.00 0.00 0.00 0.00 0.00 0.01 0.00 0.00 0.00 0.00 0.00 0.00 0.00 0.00 0.00 0.00 0.00 0.00 0.00 0.00 0.00 0.00 0.00 0.00
0.00 0.00 0.00 0.00 0.00 0.00 0.00 0.00 0.00 0.00 0.00 0.00 0.00 0.00 0.00 0.00 0.00 0.00 0.00 0.06 0.01 0.00 0.01 0.01 0.02 0.00 0.00 0.00 0.00 0.00 0.00 0.00 0.00 0.00 0.00 0.00 0.00 0.00 0.00 0.00 0.00 0.00 0.00 0.00 0.00
0.00 0.00 0.00 0.00 0.00 0.00 0.00 0.00 0.00 0.00 0.00 0.00 0.00 0.00 0.00 0.00 0.00 0.00 0.00 0.01 0.06 0.03 0.01 0.01 0.00 0.00 0.00 0.00 0.00 0.00 0.00 0.00 0.00 0.00 0.00 0.00 0.00 0.00 0.00 0.00 0.00 0.00 0.00 0.00 0.00
0.00 0.00 0.00 0.00 0.00 0.00 0.00 0.00 0.00 0.00 0.00 0.00 0.00 0.00 0.00 0.00 0.00 0.00 0.00 0.00 0.02 0.01 0.01 0.00 0.00 0.00 0.00 0.00 0.00 0.00 0.00 0.00 0.00 0.00 0.00 0.00 0.00 0.00 0.00 0.00 0.00 0.00 0.00 0.00 0.00
0.00 0.00 0.00 0.00 0.00 0.00 0.00 0.00 0.00 0.00 0.00 0.00 0.00 0.00 0.00 0.00 0.00 0.00 0.00 0.00 0.00 0.00 0.00 0.00 0.00 0.00 0.00 0.00 0.00 0.00 0.00 0.00 0.00 0.00 0.00 0.00 0.00 0.00 0.00 0.00 0.00 0.00 0.00 0.00 0.00
0.00 0.00 0.00 0.00 0.00 0.00 0.00 0.00 0.00 0.00 0.00 0.00 0.00 0.00 0.00 0.01 0.00 0.00 0.00 0.00 0.00 0.00 0.00 0.00 0.00 0.00 0.00 0.00 0.00 0.00 0.00 0.00 0.00 0.00 0.00 0.00 0.00 0.00 0.00 0.00 0.00 0.00 0.00 0.00 0.00
0.00 0.00 0.00 0.00 0.00 0.00 0.00 0.00 0.00 0.00 0.00 0.00 0.01 0.01 0.01 0.01 0.00 0.00 0.00 0.00 0.00 0.00 0.00 0.00 0.00 0.00 0.00 0.00 0.00 0.00 0.00 0.00 0.00 0.00 0.00 0.00 0.00 0.00 0.00 0.00 0.00 0.00 0.00 0.00 0.00
0.00 0.00 0.00 0.00 0.00 0.00 0.00 0.00 0.00 0.00 0.00 0.00 0.00 0.00 0.01 0.02 0.00 0.00 0.00 0.02 0.01 0.01 0.00 0.00 0.00 0.00 0.00 0.00 0.00 0.00 0.00 0.00 0.00 0.00 0.00 0.00 0.00 0.00 0.00 0.00 0.00 0.00 0.00 0.00 0.00
0.00 0.00 0.00 0.00 0.00 0.00 0.00 0.00 0.00 0.00 0.00 0.00 0.00 0.01 0.02 0.01 0.01 0.01 0.02 0.01 0.02 0.03 0.03 0.03 0.01 0.00 0.00 0.00 0.00 0.00 0.00 0.00 0.00 0.00 0.00 0.00 0.00 0.00 0.00 0.00 0.00 0.00 0.00 0.00 0.00
0.00 0.00 0.00 0.00 0.00 0.00 0.00 0.00 0.00 0.00 0.00 0.00 0.00 0.01 0.01 0.00 0.01 0.01 0.03 0.01 0.04 0.04 0.04 0.03 0.02 0.00 0.00 0.00 0.00 0.00 0.00 0.00 0.00 0.00 0.00 0.00 0.00 0.00 0.00 0.00 0.00 0.00 0.00 0.00 0.00
0.00 0.00 0.00 0.00 0.00 0.00 0.00 0.00 0.00 0.00 0.00 0.00 0.00 0.00 0.00 0.00 0.01 0.01 0.00 0.00 0.03 0.01 0.00 0.02 0.02 0.02 0.01 0.00 0.00 0.00 0.00 0.00 0.00 0.00 0.00 0.00 0.00 0.01 0.00 0.00 0.00 0.00 0.00 0.00 0.01
0.00 0.00 0.00 0.00 0.00 0.00 0.00 0.00 0.00 0.00 0.00 0.00 0.00 0.00 0.00 0.00 0.00 0.00 0.00 0.00 0.04 0.02 0.00 0.01 0.03 0.03 0.01 0.01 0.00 0.00 0.00 0.00 0.00 0.00 0.00 0.00 0.01 0.03 0.01 0.00 0.00 0.00 0.00 0.00 0.01
0.00 0.00 0.00 0.00 0.00 0.00 0.00 0.00 0.00 0.00 0.00 0.00 0.00 0.00 0.00 0.00 0.00 0.00 0.00 0.00 0.01 0.02 0.01 0.05 0.03 0.02 0.02 0.01 0.00 0.00 0.00 0.00 0.00 0.00 0.00 0.01 0.02 0.04 0.03 0.04 0.03 0.02 0.02 0.01 0.02
0.00 0.00 0.00 0.00 0.00 0.00 0.00 0.00 0.00 0.00 0.00 0.00 0.00 0.00 0.00 0.00 0.00 0.00 0.00 0.00 0.00 0.00 0.00 0.03 0.02 0.02 0.00 0.01 0.00 0.00 0.00 0.00 0.00 0.00 0.00 0.00 0.00 0.03 0.06 0.08 0.16 0.13 0.03 0.01 0.00
MSLP
1019.74 1019.32 1018.91 1018.49 1018.09 1017.63 1017.17 1016.82 1016.53 1016.25 1015.98 1015.76 1015.47 1015.27 1015.00 1014.62 1014.11 1013.87 1013.17 1011.60 1011.60 1011.18 1011.25 1011.13 1010.92 1010.56 1010.55 1010.55 1010.16 1010.28 1010.83 1009.88 1008.39 1007.79 1007.57 1005.77 1005.13 1004.18 1003.39 1003.63 1003.83 1003.88 1003.83 1003.60 1004.62
1019.65 1019.22 1018.71 1018.21 1017.84 1017.41 1016.97 1016.56 1016.21 1015.87 1015.58 1015.32 1015.15 1015.01 1014.77 1014.40 1013.91 1013.01 1011.11 1010.79 1010.95 1010.89 1011.15 1010.82 1010.85 1010.47 1010.53 1010.33 1009.98 1009.81 1009.57 1008.28 1007.39 1007.20 1006.79 1005.87 1004.80 1004.26 1003.85 1003.97 1004.13 1004.06 1003.71 1003.92 1004.34
1019.56 1019.00 1018.49 1018.01 1017.58 1017.13 1016.67 1016.27 1015.89 1015.55 1015.27 1015.10 1014.91 1014.75 1014.57 1014.24 1013.88 1011.53 1009.99 1009.94 1010.13 1010.08 1010.39 1010.53 1010.60 1010.64 1010.54 1010.25 1009.78 1009.11 1008.15 1007.61 1006.69 1006.57 1006.68 1006.17 1005.19 1004.21 1004.32 1004.26 1003.79 1003.67 1003.72 1004.23 1003.80
1019.29 1018.73 1018.22 1017.76 1017.27 1016.72 1016.22 1015.85 1015.55 1015.25 1015.03 1014.89 1014.68 1014.55 1014.39 1014.31 1013.29 1010.39 1010.07 1010.04 1009.99 1009.60 1010.04 1010.49 1010.65 1010.82 1010.41 1010.06 1009.39 1008.95 1007.77 1007.23 1006.74 1006.75 1006.74 1006.20 1005.46 1004.64 1004.35 1003.95 1003.55 1003.31 1002.95 1004.26 1004.06
1019.14 1018.53 1017.94 1017.45 1016.94 1016.37 1015.89 1015.45 1015.11 1014.91 1014.78 1014.65 1014.57 1014.42 1014.51 1014.36 1012.86 1010.35 1010.02 1010.29 1010.13 1010.01 1010.10 1010.66 1010.66 1010.50 1010.20 1009.71 1009.27 1008.47 1007.71 1007.11 1006.79 1006.85 1006.77 1006.36 1005.88 1004.96 1004.06 1003.49 1003.31 1003.01 1003.33 1003.17 1004.09
1018.92 1018.33 1017.72 1017.21 1016.67 1016.11 1015.51 1015.08 1014.81 1014.67 1014.56 1014.41 1014.44 1014.40 1014.72 1014.21 1010.89 1010.19 1010.17 1010.31 1010.35 1010.69 1010.64 1010.53 1010.44 1010.22 1010.14 1009.51 1008.88 1007.74 1007.41 1007.21 1006.77 1006.90 1006.91 1006.30 1005.56 1005.07 1003.45 1003.21 1003.07 1003.13 1003.21 1003.61 1004.64
1018.62 1018.02 1017.44 1016.91 1016.35 1015.78 1015.29 1014.91 1014.58 1014.40 1014.25 1014.15 1014.24 1014.46 1014.57 1012.61 1010.33 1010.08 1010.23 1010.07 1010.19 1010.37 1010.47 1010.17 1010.03 1009.91 1009.68 1009.28 1008.40 1007.73 1007.54 1007.01 1006.25 1006.47 1007.04 1006.02 1005.32 1003.74 1003.56 1003.49 1003.18 1003.55 1003.55 1004.65 1005.59
1018.33 1017.70 1017.16 1016.58 1016.03 1015.41 1014.94 1014.57 1014.19 1014.02 1013.89 1013.99 1014.11 1014.49 1013.53 1010.82 1010.33 1010.04 1009.71 1009.59 1009.54 1009.63 1009.88 1009.79 1009.90 1009.96 1009.87 1009.01 1008.20 1007.70 1007.49 1006.97 1005.59 1005.93 1006.26 1006.11 1003.81 1003.76 1003.29 1003.57 1003.50 1003.43 1003.96 1004.96 1005.89
1017.97 1017.33 1016.75 1016.21 1015.65 1015.00 1014.39 1014.08 1013.73 1013.75 1013.84 1013.87 1014.31 1014.42 1012.09 1010.24 1010.00 1008.77 1008.99 1009.24 1009.03 1008.92 1008.99 1009.01 1009.51 1009.55 1009.39 1009.47 1009.05 1007.78 1007.18 1006.57 1005.61 1004.85 1004.93 1005.05 1003.79 1003.15 1003.15 1003.48 1003.58 1003.62 1004.05 1005.09 1006.13
1017.65 1016.96 1016.30 1015.86 1015.31 1014.75 1014.19 1013.81 1013.60 1013.79 1013.84 1013.93 1014.00 1014.25 1011.33 1009.55 1008.69 1008.26 1008.27 1008.73 1008.85 1008.37 1008.23 1008.38 1008.85 1008.84 1009.10 1008.81 1008.08 1007.64 1007.12 1006.16 1005.60 1004.60 1004.36 1004.34 1004.09 1003.15 1003.18 1003.48 1003.49 1003.87 1004.15 1005.09 1006.16
1017.28 1016.61 1015.86 1015.31 1014.85 1014.37 1014.18 1013.94 1014.04 1013.70 1013.49 1012.73 1012.27 1011.76 1009.85 1008.97 1008.15 1008.01 1007.95 1008.51 1008.64 1008.31 1008.25 1008.06 1008.25 1007.85 1007.83 1008.09 1007.46 1007.12 1006.49 1005.81 1004.89 1003.93 1003.92 1004.20 1004.29 1003.66 1003.17 1003.62 1003.95 1004.15 1004.72 1005.27 1005.96
1016.93 1016.19 1015.37 1014.65 1014.26 1013.95 1014.11 1013.69 1012.44 1012.22 1012.21 1011.28 1011.01 1010.91 1009.49 1009.13 1008.35 1008.01 1007.95 1008.43 1008.83 1008.51 1008.38 1008.55 1007.93 1007.63 1007.52 1007.53 1007.33 1006.98 1006.43 1005.55 1004.64 1003.93 1003.84 1003.97 1003.89 1003.45 1003.19 1003.52 1003.90 1004.32 1004.97 1005.58 1006.12
1016.51 1015.72 1014.75 1014.13 1013.73 1013.66 1013.41 1012.42 1011.57 1012.05 1012.45 1010.62 1009.74 1009.20 1008.82 1008.98 1008.33 1008.19 1008.17 1008.21 1008.69 1008.65 1008.49 1008.73 1008.08 1007.41 1007.02 1006.79 1006.79 1006.38 1006.09 1005.38 1004.77 1004.16 1003.83 1003.86 1004.05 1003.69 1003.85 1003.97 1004.33 1004.51 1004.57 1005.36 1005.61
1016.17 1015.40 1014.43 1013.51 1013.33 1013.18 1012.59 1011.46 1011.65 1012.04 1012.16 1010.47 1009.05 1008.01 1008.29 1008.47 1008.25 1007.99 1008.07 1008.39 1008.33 1008.66 1008.78 1008.51 1007.43 1006.85 1006.22 1005.95 1006.07 1005.90 1005.47 1005.27 1004.89 1004.63 1004.66 1004.17 1004.76 1004.06 1004.05 1004.63 1004.98 1005.11 1005.13 1005.35 1005.99
1015.36 1014.80 1014.17 1013.73 1013.55 1012.96 1011.87 1011.60 1012.02 1012.41 1012.31 1010.14 1008.79 1007.49 1007.99 1008.33 1008.36 1008.13 1007.96 1008.03 1008.11 1008.16 1008.77 1007.35 1006.45 1006.03 1005.83 1005.45 1005.40 1005.28 1004.73 1004.91 1005.06 1005.11 1005.07 1005.01 1005.18 1004.31 1004.18 1004.80 1004.97 1005.10 1005.19 1005.15 1005.56
1014.36 1014.03 1013.58 1013.51 1013.61 1012.15 1011.77 1011.91 1012.31 1013.00 1011.51 1010.12 1008.95 1008.23 1008.16 1007.93 1008.38 1008.31 1008.04 1007.96 1007.88 1007.88 1007.55 1007.01 1006.24 1006.00 1005.19 1004.76 1004.74 1004.70 1004.75 1004.97 1005.39 1005.77 1006.02 1005.18 1004.95 1004.63 1003.85 1003.02 1004.05 1004.72 1004.83 1005.03 1005.27
1013.73 1013.01 1012.86 1012.64 1012.28 1011.59 1011.73 1012.41 1012.89 1012.87 1011.71 1010.65 1009.63 1008.80 1008.41 1008.26 1008.39 1008.39 1008.11 1007.92 1007.91 1007.88 1007.36 1006.45 1005.74 1005.05 1004.59 1004.44 1004.27 1004.45 1004.78 1005.75 1006.61 1006.72 1006.30 1005.31 1005.17 1003.84 1002.84 1002.59 1002.42 1003.62 1004.39 1004.72 1005.15
1013.51 1012.55 1012.29 1011.60 1011.53 1011.24 1011.85 1012.56 1013.09 1012.85 1011.77 1010.57 1009.88 1009.02 1008.58 1008.21 1008.35 1008.37 1008.16 1007.77 1007.30 1007.46 1007.14 1006.32 1005.26 1004.33 1003.93 1004.01 1004.00 1004.45 1004.95 1005.61 1006.31 1006.82 1006.54 1005.49 1004.67 1003.15 1002.11 1001.97 1002.13 1002.64 1003.21 1004.25 1005.09
1013.47 1012.54 1012.22 1010.92 1010.74 1011.11 1012.30 1012.98 1013.15 1012.35 1011.39 1010.67 1009.68 1009.21 1008.61 1008.50 1008.95 1008.37 1007.88 1007.11 1006.31 1006.27 1006.53 1005.80 1004.52 1003.37 1003.07 1003.26 1003.81 1004.53 1005.10 1005.46 1006.19 1006.81 1006.55 1005.80 1004.06 1002.95 1002.40 1002.38 1002.59 1002.95 1003.92 1004.60 1004.92
1014.93 1014.01 1012.03 1010.75 1010.57 1011.32 1012.60 1013.19 1012.55 1011.75 1011.12 1010.69 1010.19 1009.52 1009.32 1009.05 1009.21 1008.42 1007.25 1005.70 1005.23 1004.88 1005.09 1005.15 1004.33 1003.09 1003.23 1003.26 1003.46 1003.85 1004.61 1005.66 1006.42 1007.33 1007.42 1006.18 1005.05 1003.72 1002.96 1002.95 1003.39 1003.69 1003.85 1004.20 1004.70
1015.35 1014.25 1011.55 1011.01 1011.00 1012.24 1013.71 1013.57 1012.27 1011.32 1011.17 1011.01 1010.63 1010.13 1009.45 1009.11 1008.54 1008.05 1006.60 1005.24 1004.59 1004.30 1004.71 1004.77 1004.73 1003.82 1003.35 1003.30 1003.29 1004.05 1004.74 1005.68 1006.42 1007.53 1007.59 1007.36 1005.29 1004.17 1003.79 1002.89 1002.89 1002.97 1002.73 1003.02 1003.55
1016.99 1015.18 1012.18 1011.16 1012.70 1014.38 1014.44 1013.86 1012.53 1011.55 1011.15 1010.92 1010.61 1010.31 1009.73 1009.15 1008.21 1007.39 1006.34 1005.33 1004.31 1004.59 1004.65 1004.33 1004.60 1004.16 1003.36 1002.52 1002.56 1003.27 1004.25 1005.22 1006.49 1007.80 1007.74 1007.52 1005.37 1003.56 1003.38 1002.96 1002.35 1001.78 1002.05 1002.33 1002.63
1018.23 1016.58 1013.12 1012.78 1014.92 1015.81 1015.24 1014.14 1013.03 1011.95 1011.48 1011.11 1010.78 1010.44 1010.19 1009.53 1009.01 1007.61 1006.21 1004.82 1004.89 1004.53 1004.61 1004.46 1004.30 1004.40 1003.60 1003.13 1002.72 1003.04 1003.71 1004.47 1005.60 1006.71 1007.07 1006.99 1005.27 1003.36 1003.00 1002.94 1002.35 1001.54 1001.77 1002.19 1003.10
1018.67 1018.01 1016.29 1015.97 1016.54 1016.83 1016.52 1015.16 1013.97 1012.63 1012.04 1011.67 1011.29 1010.60 1010.42 1009.86 1009.09 1008.11 1007.13 1005.60 1005.48 1005.07 1004.18 1004.35 1005.05 1004.51 1003.74 1003.10 1002.94 1003.25 1003.49 1004.09 1005.10 1006.11 1006.41 1006.17 1005.33 1004.23 1004.03 1003.65 1002.93 1001.75 1002.12 1003.05 1003.69
1019.53 1020.08 1019.74 1018.56 1017.88 1017.91 1017.17 1015.98 1015.07 1014.21 1013.00 1012.08 1011.63 1011.41 1011.27 1010.46 1009.36 1008.39 1008.05 1007.19 1005.71 1005.62 1004.99 1005.21 1005.17 1005.08 1003.47 1003.00 1002.49 1002.76 1002.79 1003.57 1004.23 1004.75 1005.39 1005.52 1005.95 1005.74 1005.31 1004.99 1004.49 1004.09 1002.86 1003.81 1004.85
1020.96 1021.14 1020.37 1019.70 1018.94 1018.38 1017.60 1016.91 1016.05 1015.27 1014.57 1013.28 1012.74 1012.03 1011.53 1011.13 1010.53 1009.65 1009.15 1008.85 1007.62 1006.27 1006.25 1006.03 1005.49 1004.68 1003.89 1003.01 1002.65 1002.92 1002.68 1003.02 1003.91 1004.44 1005.05 1005.69 1005.98 1005.71 1005.70 1005.51 1005.80 1005.80 1004.91 1004.94 1006.11
1021.51 1021.39 1021.25 1020.39 1019.56 1018.91 1018.29 1017.73 1016.66 1016.26 1014.48 1013.77 1013.21 1012.34 1011.58 1010.97 1010.60 1009.69 1009.21 1008.54 1007.93 1008.00 1007.73 1007.09 1006.22 1005.63 1004.49 1003.21 1002.54 1002.59 1001.89 1002.35 1002.94 1003.20 1004.01 1004.96 1005.02 1006.01 1006.65 1006.97 1007.81 1007.64 1007.39 1006.61 1006.87
Thickness
5668 5667 5665 5663 5659 5656 5652 5647 5641 5635 5628 5621 5614 5608 5602 5600 5601 5601 5606 5623 5627 5634 5642 5645 5654 5662 5668 5671 5684 5687 5668 5675 5710 5719 5724 5753 5756 5776 5792 5783 5787 5800 5807 5816 5816
5664 5662 5661 5659 5654 5649 5645 5639 5633 5627 5617 5607 5598 5590 5586 5583 5583 5586 5608 5612 5612 5617 5628 5633 5636 5647 5649 5659 5669 5671 5666 5695 5717 5723 5725 5740 5755 5759 5771 5770 5772 5787 5809 5811 5817
5660 5659 5656 5653 5649 5643 5638 5631 5624 5615 5604 5594 5587 5582 5577 5573 5568 5585 5597 5600 5603 5607 5612 5620 5624 5631 5637 5648 5658 5669 5681 5701 5718 5724 5722 5729 5742 5756 5755 5756 5769 5779 5795 5801 5812
5658 5656 5653 5648 5643 5638 5631 5624 5614 5604 5593 5584 5580 5574 5569 5562 5569 5586 5583 5581 5584 5593 5596 5603 5607 5613 5624 5633 5649 5656 5680 5696 5707 5712 5711 5724 5737 5739 5750 5759 5780 5789 5804 5795 5805
5654 5652 5649 5644 5638 5633 5625 5617 5607 5597 5585 5577 5571 5567 5559 5549 5553 5570 5566 5561 5566 5571 5577 5582 5591 5602 5612 5625 5638 5650 5668 5687 5698 5700 5703 5715 5718 5731 5748 5766 5778 5791 5798 5802 5800
5650 5648 5644 5640 5634 5627 5620 5610 5600 5589 5578 5570 5563 5557 5546 5528 5561 5557 5548 5543 5547 5549 5556 5567 5581 5592 5599 5612 5627 5653 5660 5671 5685 5687 5693 5702 5717 5725 5754 5765 5773 5781 5790 5794 5792
5648 5645 5641 5636 5629 5622 5614 5603 5593 5582 5572 5564 5556 5547 5534 5534 5555 5548 5540 5536 5536 5538 5544 5554 5567 5579 5592 5603 5622 5637 5643 5657 5675 5681 5677 5699 5703 5730 5747 5756 5763 5766 5777 5772 5774
5646 5643 5637 5631 5625 5617 5609 5598 5588 5578 5568 5557 5549 5537 5529 5548 5544 5540 5536 5528 5529 5531 5535 5544 5551 5565 5578 5595 5612 5623 5631 5633 5669 5674 5680 5690 5708 5732 5741 5741 5751 5762 5767 5761 5761
5644 5640 5635 5628 5622 5615 5606 5595 5584 5572 5560 5552 5539 5528 5526 5544 5537 5538 5526 5517 5519 5525 5528 5539 5542 5555 5570 5575 5584 5605 5611 5632 5657 5678 5685 5694 5708 5727 5737 5736 5744 5753 5761 5760 5754
5642 5638 5633 5625 5618 5611 5603 5592 5578 5565 5555 5546 5537 5521 5535 5545 5539 5531 5519 5507 5505 5516 5523 5530 5538 5545 5555 5566 5587 5602 5613 5632 5642 5671 5682 5686 5696 5719 5728 5729 5739 5744 5753 5755 5752
5640 5636 5631 5625 5617 5608 5597 5585 5573 5562 5552 5551 5551 5542 5547 5542 5538 5527 5515 5499 5496 5504 5514 5527 5528 5545 5569 5577 5594 5601 5613 5629 5646 5673 5679 5680 5687 5706 5717 5722 5726 5734 5740 5742 5748
5638 5634 5631 5626 5617 5608 5593 5586 5582 5572 5558 5561 5553 5542 5545 5537 5529 5523 5515 5502 5495 5500 5511 5519 5530 5552 5567 5576 5586 5594 5604 5621 5646 5663 5671 5673 5679 5699 5710 5719 5724 5729 5731 5734 5738
5638 5634 5631 5626 5617 5605 5595 5592 5586 5570 5548 5563 5563 5556 5549 5538 5531 5521 5515 5511 5506 5507 5511 5514 5531 5551 5562 5574 5581 5591 5601 5618 5632 5652 5668 5672 5664 5688 5698 5708 5717 5726 5736 5736 5740
5636 5633 5631 5627 5620 5607 5599 5596 5582 5566 5538 5559 5560 5561 5552 5542 5533 5529 5521 5512 5512 5509 5512 5516 5544 5553 5563 5576 5585 5583 5608 5618 5630 5633 5627 5661 5635 5674 5690 5690 5704 5712 5722 5731 5733
5638 5634 5629 5622 5614 5608 5606 5594 5577 5558 5529 5563 5559 5567 5553 5541 5536 5531 5528 5520 5518 5523 5516 5535 5547 5557 5562 5577 5589 5591 5614 5617 5624 5623 5632 5639 5637 5657 5679 5684 5704 5717 5719 5730 5734
5642 5637 5631 5622 5610 5612 5604 5590 5573 5542 5535 5555 5561 5555 5550 5548 5538 5533 5531 5530 5528 5530 5535 5539 5553 5558 5569 5585 5594 5605 5609 5612 5609 5609 5603 5635 5645 5649 5677 5708 5708 5716 5723 5728 5733
5644 5641 5633 5624 5620 5612 5600 5581 5553 5540 5565 5553 5554 5556 5552 5548 5540 5537 5535 5531 5532 5532 5534 5549 5558 5570 5581 5582 5596 5600 5594 5577 5583 5589 5602 5633 5637 5662 5699 5708 5722 5718 5719 5723 5727
5642 5641 5633 5628 5619 5610 5594 5573 5552 5558 5554 5561 5558 5557 5553 5557 5549 5542 5540 5537 5543 5541 5538 5545 5556 5573 5587 5587 5590 5596 5596 5576 5588 5587 5606 5635 5636 5672 5698 5713 5720 5725 5727 5721 5718
5638 5637 5631 5629 5622 5608 5583 5551 5553 5556 5560 5553 5558 5557 5562 5559 5548 5547 5543 5551 5562 5556 5548 5554 5566 5590 5595 5600 5601 5591 5592 5607 5599 5604 5608 5622 5657 5683 5693 5703 5708 5712 5712 5712 5713
5622 5619 5623 5627 5619 5601 5572 5563 5561 5563 5560 5554 5548 5556 5548 5548 5539 5546 5554 5570 5572 5576 5573 5571 5566 5593 5593 5600 5602 5601 5605 5597 5591 5594 5604 5618 5636 5655 5682 5688 5689 5694 5703 5709 5710
5615 5617 5628 5621 5610 5584 5547 5556 5564 5566 5556 5547 5544 5544 5553 5551 5554 5551 5564 5577 5582 5582 5579 5575 5571 5583 5591 5589 5591 5593 5592 5594 5595 5593 5592 5592 5624 5659 5664 5681 5685 5693 5707 5712 5713
5595 5608 5618 5616 5582 5548 5553 5555 5561 5561 5554 5546 5544 5543 5547 5553 5558 5563 5564 5575 5592 5583 5578 5584 5572 5571 5588 5606 5611 5603 5597 5596 5582 5590 5592 5595 5614 5661 5664 5671 5685 5704 5708 5711 5716
5581 5581 5606 5598 5553 5542 5544 5549 5553 5554 5546 5542 5538 5542 5543 5545 5544 5559 5572 5588 5583 5585 5578 5581 5580 5569 5583 5593 5605 5602 5608 5605 5597 5590 5593 5588 5611 5661 5667 5669 5677 5696 5698 5703 5700
5576 5573 5572 5558 5545 5541 5528 5532 5539 5546 5543 5539 5533 5540 5537 5538 5549 5551 5562 5580 5578 5582 5594 5589 5571 5575 5573 5588 5596 5595 5606 5607 5599 5583 5596 5604 5621 5637 5651 5658 5667 5680 5685 5686 5688
5560 5552 5542 5530 5534 5518 5516 5524 5523 5520 5532 5532 5530 5528 5522 5528 5542 5555 5555 5561 5579 5578 5581 5576 5574 5576 5601 5598 5606 5606 5614 5608 5610 5612 5607 5614 5613 5626 5634 5642 5653 5661 5682 5682 5677
5547 5537 5529 5516 5515 5516 5511 5508 5510 5509 5510 5517 5513 5514 5517 5520 5529 5535 5541 5545 5557 5572 5570 5571 5578 5584 5590 5598 5605 5600 5614 5613 5613 5608 5607 5605 5612 5629 5634 5642 5643 5647 5666 5671 5665
5537 5530 5519 5512 5507 5507 5500 5494 5501 5494 5506 5508 5505 5508 5511 5518 5523 5531 5536 5546 5555 5553 5553 5562 5570 5566 5583 5596 5600 5593 5609 5613 5612 5622 5618 5609 5628 5624 5621 5624 5620 5633 5642 5656 5660